| time (UTC) | temp F | wind direction | speed MPH | gust MPH | rain 1hr in | rain 24hr in | rain mn in | humidity % | barometer mb |
| 20260901161555 | 93 | 274 | 4.0 | 14.0 | 0.00 | 0.00 | 0.00 | 49 | 1014.7 |
| 20260901160004 | 91 | 11 | 2.0 | 13.0 | 0.00 | 0.00 | 0.00 | 53 | 1014.9 |
| 20260901154554 | 89 | 11 | 5.0 | 16.0 | 0.00 | 0.00 | 0.00 | 53 | 1015.1 |
| 20260901153018 | 88 | 11 | 6.0 | 17.0 | 0.00 | 0.00 | 0.00 | 56 | 1014.9 |
| 20260901151558 | 86 | 208 | 6.0 | 12.0 | 0.00 | 0.00 | 0.00 | 58 | 1014.9 |
| 20260901150019 | 85 | 193 | 4.0 | 12.0 | 0.00 | 0.00 | 0.00 | 60 | 1014.8 |
| 20260901144608 | 84 | 199 | 2.0 | 13.0 | 0.00 | 0.00 | 0.00 | 63 | 1015.0 |
| 20260901143030 | 83 | 11 | 3.0 | 10.0 | 0.00 | 0.00 | 0.00 | 62 | 1014.9 |
| 20260901141624 | 82 | 201 | 5.0 | 14.0 | 0.00 | 0.00 | 0.00 | 63 | 1014.9 |
| 20260901140048 | 81 | 11 | 5.0 | 14.0 | 0.00 | 0.00 | 0.00 | 65 | 1014.9 |
| 20260901134613 | 80 | 189 | 5.0 | 12.0 | 0.00 | 0.00 | 0.00 | 66 | 1015.0 |
| 20260901133026 | 79 | 210 | 5.0 | 11.0 | 0.00 | 0.00 | 0.00 | 67 | 1015.2 |
| 20260901131619 | 78 | 205 | 3.0 | 8.0 | 0.00 | 0.00 | 0.00 | 69 | 1015.2 |
| 20260901130041 | 77 | 11 | 3.0 | 9.0 | 0.00 | 0.00 | 0.00 | 70 | 1015.0 |
| 20260901124624 | 77 | 216 | 3.0 | 10.0 | 0.00 | 0.00 | 0.00 | 69 | 1015.0 |
| 20260901123038 | 76 | 11 | 3.0 | 10.0 | 0.00 | 0.00 | 0.00 | 69 | 1014.9 |
| 20260901121631 | 76 | 11 | 2.0 | 8.0 | 0.00 | 0.00 | 0.00 | 69 | 1014.6 |
| 20260901120052 | 77 | 193 | 3.0 | 9.0 | 0.00 | 0.00 | 0.00 | 68 | 1014.5 |
| 20260901114509 | 77 | 11 | 4.0 | 12.0 | 0.00 | 0.00 | 0.00 | 67 | 1014.4 |
| 20260901113104 | 77 | 11 | 4.0 | 11.0 | 0.00 | 0.00 | 0.00 | 67 | 1014.3 |
| 20260901111519 | 77 | 213 | 4.0 | 10.0 | 0.00 | 0.00 | 0.00 | 66 | 1014.2 |
| 20260901110110 | 77 | 11 | 3.0 | 15.0 | 0.00 | 0.00 | 0.00 | 66 | 1014.1 |
| 20260901104514 | 77 | 197 | 5.0 | 13.0 | 0.00 | 0.00 | 0.00 | 66 | 1013.9 |
| 20260901103101 | 77 | 11 | 3.0 | 10.0 | 0.00 | 0.00 | 0.00 | 66 | 1013.9 |
| 20260901101548 | 78 | 11 | 1.0 | 9.0 | 0.00 | 0.00 | 0.00 | 65 | 1013.8 |
| 20260901100113 | 78 | 193 | 2.0 | 8.0 | 0.00 | 0.00 | 0.00 | 64 | 1013.7 |
| 20260901094531 | 78 | 11 | 2.0 | 9.0 | 0.00 | 0.00 | 0.00 | 64 | 1013.5 |
| 20260901093111 | 79 | 11 | 2.0 | 14.0 | 0.00 | 0.00 | 0.00 | 63 | 1013.4 |
| 20260901091515 | 79 | 169 | 4.0 | 10.0 | 0.00 | 0.00 | 0.00 | 63 | 1013.4 |
| 20260901090109 | 79 | 11 | 2.0 | 14.0 | 0.00 | 0.00 | 0.00 | 62 | 1013.1 |
| 20260901084535 | 79 | 208 | 4.0 | 13.0 | 0.00 | 0.00 | 0.00 | 61 | 1013.1 |
| 20260901083112 | 79 | 11 | 3.0 | 8.0 | 0.00 | 0.00 | 0.00 | 61 | 1012.8 |
| 20260901081519 | 79 | 207 | 4.0 | 11.0 | 0.00 | 0.00 | 0.00 | 61 | 1012.9 |
| 20260901080214 | 80 | 11 | 3.0 | 12.0 | 0.00 | 0.00 | 0.00 | 61 | 1012.9 |
| 20260901074537 | 80 | 226 | 2.0 | 11.0 | 0.00 | 0.00 | 0.00 | 60 | 1013.0 |
| 20260901073127 | 81 | 11 | 1.0 | 5.0 | 0.00 | 0.00 | 0.00 | 59 | 1012.9 |
| 20260901070005 | 81 | 11 | 2.0 | 8.0 | 0.00 | 0.00 | 0.00 | 57 | 1013.0 |
| 20260901064608 | 82 | 197 | 3.0 | 7.0 | 0.00 | 0.00 | 0.00 | 57 | 1013.1 |
| 20260901063012 | 82 | 11 | 2.0 | 9.0 | 0.00 | 0.00 | 0.00 | 57 | 1013.1 |
| 20260901061606 | 82 | 11 | 1.0 | 8.0 | 0.00 | 0.00 | 0.00 | 56 | 1013.3 |
| 20260901060010 | 82 | 193 | 2.0 | 6.0 | 0.00 | 0.00 | 0.00 | 56 | 1013.3 |
| 20260901054553 | 82 | 11 | 2.0 | 11.0 | 0.00 | 0.00 | 0.00 | 56 | 1013.3 |
| 20260901053003 | 83 | 179 | 2.0 | 8.0 | 0.00 | 0.00 | 0.00 | 55 | 1013.1 |
| 20260901051551 | 83 | 186 | 3.0 | 10.0 | 0.00 | 0.00 | 0.00 | 55 | 1013.0 |
| 20260901050003 | 83 | 11 | 3.0 | 10.0 | 0.00 | 0.00 | 0.00 | 55 | 1013.1 |
| 20260901044610 | 83 | 11 | 3.0 | 10.0 | 0.00 | 0.00 | 0.00 | 55 | 1013.0 |
| 20260901043011 | 83 | 11 | 3.0 | 10.0 | 0.00 | 0.00 | 0.00 | 55 | 1013.0 |
| 20260901041557 | 83 | 180 | 2.0 | 10.0 | 0.00 | 0.00 | 0.00 | 55 | 1012.7 |
| 20260901040013 | 83 | 11 | 1.0 | 5.0 | 0.00 | 0.00 | 0.00 | 55 | 1012.8 |
| 20260901034614 | 84 | 11 | 1.0 | 10.0 | 0.00 | 0.00 | 0.00 | 55 | 1012.8 |
| 20260901033020 | 85 | 11 | 2.0 | 5.0 | 0.00 | 0.00 | 0.00 | 54 | 1012.6 |
| 20260901031608 | 85 | 11 | 4.0 | 12.0 | 0.00 | 0.00 | 0.00 | 53 | 1012.6 |
| 20260901030022 | 85 | 11 | 2.0 | 9.0 | 0.00 | 0.00 | 0.00 | 55 | 1012.4 |
| 20260901024613 | 85 | 181 | 1.0 | 5.0 | 0.00 | 0.00 | 0.00 | 56 | 1012.3 |
| 20260901023031 | 85 | 155 | 2.0 | 10.0 | 0.00 | 0.00 | 0.00 | 57 | 1012.2 |
| 20260901021625 | 86 | 11 | 2.0 | 5.0 | 0.00 | 0.00 | 0.00 | 57 | 1012.2 |
| 20260901020049 | 86 | 11 | 1.0 | 4.0 | 0.00 | 0.00 | 0.00 | 58 | 1012.0 |
| 20260901014504 | 87 | 11 | 0.0 | 3.0 | 0.00 | 0.00 | 0.00 | 57 | 1011.9 |
| 20260901013058 | 88 | 11 | 0.0 | 5.0 | 0.00 | 0.00 | 0.00 | 57 | 1011.8 |
| 20260901011634 | 89 | 176 | 0.0 | 3.0 | 0.00 | 0.00 | 0.00 | 55 | 1011.6 |
| 20260901010041 | 90 | 173 | 0.0 | 2.0 | 0.00 | 0.00 | 0.00 | 54 | 1011.6 |
| 20260901004503 | 91 | 11 | 0.0 | 3.0 | 0.00 | 0.00 | 0.00 | 52 | 1011.4 |
| 20260901003044 | 93 | 193 | 0.0 | 1.0 | 0.00 | 0.00 | 0.00 | 51 | 1011.4 |
| 20260901001632 | 94 | 194 | 0.0 | 3.0 | 0.00 | 0.00 | 0.00 | 50 | 1011.2 |
| 20260901000044 | 94 | 11 | 1.0 | 4.0 | 0.00 | 0.00 | 0.00 | 48 | 1011.3 |
| 20260831234505 | 95 | 11 | 1.0 | 6.0 | 0.00 | 0.00 | 0.00 | 47 | 1011.3 |
| 20260831233047 | 96 | 11 | 1.0 | 5.0 | 0.00 | 0.00 | 0.00 | 45 | 1011.2 |
| 20260831231634 | 96 | 11 | 3.0 | 9.0 | 0.00 | 0.00 | 0.00 | 43 | 1011.3 |
| 20260831230039 | 97 | 11 | 2.0 | 7.0 | 0.00 | 0.00 | 0.00 | 42 | 1011.2 |
| 20260831224643 | 97 | 207 | 3.0 | 9.0 | 0.00 | 0.00 | 0.00 | 40 | 1011.2 |
| 20260831223043 | 98 | 224 | 2.0 | 10.0 | 0.00 | 0.00 | 0.00 | 40 | 1011.4 |
| 20260831221632 | 98 | 11 | 2.0 | 17.0 | 0.00 | 0.00 | 0.00 | 41 | 1011.3 |
| 20260831220053 | 99 | 11 | 7.0 | 16.0 | 0.00 | 0.00 | 0.00 | 39 | 1011.4 |
| 20260831214630 | 101 | 11 | 2.0 | 15.0 | 0.00 | 0.00 | 0.00 | 39 | 1011.5 |
| 20260831213044 | 101 | 286 | 4.0 | 12.0 | 0.00 | 0.00 | 0.00 | 39 | 1011.3 |
| 20260831211514 | 101 | 210 | 5.0 | 17.0 | 0.00 | 0.00 | 0.00 | 38 | 1011.4 |
| 20260831210104 | 102 | 212 | 5.0 | 16.0 | 0.00 | 0.00 | 0.00 | 38 | 1011.5 |
| 20260831204521 | 103 | 11 | 7.0 | 23.0 | 0.00 | 0.00 | 0.00 | 38 | 1011.7 |
| 20260831203111 | 102 | 193 | 3.0 | 15.0 | 0.00 | 0.00 | 0.00 | 38 | 1011.7 |
| 20260831201522 | 102 | 11 | 3.0 | 13.0 | 0.00 | 0.00 | 0.00 | 37 | 1011.8 |
| 20260831200110 | 102 | 11 | 4.0 | 23.0 | 0.00 | 0.00 | 0.00 | 39 | 1011.7 |
| 20260831194551 | 101 | 264 | 6.0 | 18.0 | 0.00 | 0.00 | 0.00 | 38 | 1011.8 |
| 20260831193126 | 101 | 206 | 8.0 | 19.0 | 0.00 | 0.00 | 0.00 | 38 | 1011.8 |
| 20260831191547 | 100 | 11 | 4.0 | 16.0 | 0.00 | 0.00 | 0.00 | 41 | 1011.8 |
| 20260831190142 | 100 | 222 | 7.0 | 19.0 | 0.00 | 0.00 | 0.00 | 41 | 1012.0 |
| 20260831184549 | 99 | 269 | 7.0 | 17.0 | 0.00 | 0.00 | 0.00 | 41 | 1012.0 |
| 20260831183004 | 98 | 11 | 6.0 | 24.0 | 0.00 | 0.00 | 0.00 | 44 | 1012.2 |
| 20260831181549 | 98 | 11 | 6.0 | 17.0 | 0.00 | 0.00 | 0.00 | 43 | 1012.3 |
| 20260831180124 | 97 | 11 | 7.0 | 22.0 | 0.00 | 0.00 | 0.00 | 43 | 1012.5 |
| 20260831174546 | 96 | 208 | 7.0 | 17.0 | 0.00 | 0.00 | 0.00 | 45 | 1012.7 |
| 20260831173130 | 95 | 11 | 7.0 | 18.0 | 0.00 | 0.00 | 0.00 | 46 | 1013.0 |
| 20260831171542 | 93 | 211 | 2.0 | 15.0 | 0.00 | 0.00 | 0.00 | 52 | 1013.2 |
| 20260831170135 | 91 | 11 | 5.0 | 18.0 | 0.00 | 0.00 | 0.00 | 52 | 1013.2 |
| 20260831164550 | 91 | 11 | 4.0 | 18.0 | 0.00 | 0.00 | 0.00 | 52 | 1013.3 |
| 20260831163007 | 90 | 11 | 5.0 | 14.0 | 0.00 | 0.00 | 0.00 | 54 | 1013.3 |